sat.trackr.live / text

‹ back to catalog

STARLINK-36928

NORAD 68020 · 2026-040F

PAYLOAD ACTIVE UNKNOWN

§ Identity

Operator
Country
US
Launch date
2026-03-01
Launch site
AFWTR
Launch vehicle
Mass (kg)
RCS (m²)

Purposes: comms

External: N2YO · Heavens-Above · Gunter

§ Orbital elements

Epoch: 2026-05-24T19:06:51.093216Z

Period
93.91 min
Inclination
97.2856°
Eccentricity
0.0002618
Mean motion
15.33457305 rev/d
Perigee alt
463.7 km
Apogee alt
467.3 km
Semi-major
6,843.6 km
B*
8.7199e-4
RAAN
93.7751°
Arg perigee
83.8064°
Mean anomaly
276.3477°
Rev number
1,312

§ Raw data

STARLINK-369281 68020U 26040F   26144.79642469  .00028194  00000+0  87199-3 0  99922 68020  97.2856  93.7751 0002618  83.8064 276.3477 15.33457305 13122

JSON: /api/v1/satellites/68020 · /tle

For live sub-satellite position, see the globe view (requires WebGL).

§ Visibility from observer

Set your observer location to see the next 7 days of passes ≥ 10°. The values pass through the URL so the page stays shareable.

No JS? Fill the form by hand. The geolocation button needs JavaScript.